Weather in Mirolyubie

Russia / Voronezh Oblast     51°29′21″N   42°18′50″E
temp.,
°C
wind,
m/s
gust,
m/s
humid.,
%
clouds,
%
prec.,
mm/h
press.,
hPa
HPBL,
m
27 february, sat
sat2700:00+2wnw51398100 0.1 1007386
03:000wsw51294100 0.1 1008293
06:00+1w61396100 0.0 1006488
09:00+1w51394100 0.0 1006624
12:00+1w61299100 0.0 1005513
15:00+1w7149699 0.1 1005688
18:00−3nnw8148399 0.6 1007763
21:00−8nnw5118982 0.6 1010520
28 february, sun
sun2800:00−9nw499182 0.0 1012447
03:00−10nw389265 0.0 1013306
06:00−10nw37920 0.0 1014266
09:00−9nw47890 0.0 1015392
12:00−7nw358675 0.0 1016509
15:00−6nw358787 0.0 1016546
18:00−6nw2592100 0.0 1017292
21:00−8nnw239493 0.1 101947
1 march, mon
mon100:00−9n229461 0.0 102028
03:00−10n229565 0.0 102134
06:00−11n229319 0.0 102233
09:00−9n13909 0.0 1025148
12:00−6nnw238346 0.0 1025418
15:00−5nw248473 0.0 1026504
18:00−7wsw229181 0.0 102521
21:00−6wsw239483 0.0 102667
2 march, tue
tue200:00−4wsw4992100 0.0 1024339
03:00−3wsw51290100 0.0 1021477
06:00−3wsw71488100 0.0 1017503
09:00−1wsw81596100 0.8 1014705
12:00+1w813100100 0.9 1012789
15:00+1wnw71298100 1.1 1011654
18:00−1wnw5129197 0.1 1011449
21:00−2nw6128962 0.1 1012358
3 march, wed
wed300:00−2wnw6129497 0.1 1012468
03:00−1nw6129098 0.2 1012629
06:00−4nw5129218 0.0 1013410
09:00−2nw6109155 0.1 1015887
12:00−1nw71084100 0.1 10151007
15:00−1nw61081100 0.2 1016911
18:00−2nw6128994 0.1 1017687
21:00−3nw5119171 0.1 1019458